Regional Weather Roundup
Issued by NWS

Home | Current Version | Previous Version | Text Only | Print | Product List | Glossary Off
Versions: 1 2 3 4 5 6 7 8 9 10 11 12 13 14 15 16 17 18 19 20 21 22 23 24 25 26 27 28 29 30 31 32 33 34 35 36 37 38 39 40 41 42 43 44 45 46 47 48 49 50

000
ASUS45 KBOU 180810
RWRCO

WEATHER ROUNDUP FOR COLORADO
NATIONAL WEATHER SERVICE DENVER/BOULDER CO
100 AM MST THU JAN 18 2018

NOTE: "FAIR" INDICATES FEW OR NO CLOUDS BELOW 12000 FEET WITH NO
SIGNIFICANT WEATHER AND/OR OBSTRUCTIONS TO VISIBILITY.

COZ001>005-013-030-031-180900-
...NORTHWEST COLORADO...

CITY           SKY/WX    TMP DP  RH WIND       PRES   REMARKS
CRAIG          FAIR      11   6  81 CALM      30.37S
HAYDEN         FAIR     N/A N/A N/A E16       30.37F
MEEKER         FAIR      21  17  84 VRB5      30.36F WCI  15
RABBIT EARS PA FAIR      19  18  93 W9G21     30.34F WCI   9
STEAMBOAT SPGS FAIR      13  10  88 CALM      30.37F
WALDEN         FAIR      12   7  79 SE7       30.34F WCI   2
$$

COZ006>008-011-180900-
...WEST CENTRAL VALLEYS...

CITY           SKY/WX    TMP DP  RH WIND       PRES   REMARKS
GRAND JUNCTION FAIR      27  15  61 E8        30.37F WCI  19
MONTROSE       FAIR      21  12  68 S10       30.40F WCI  10
EAGLE          FAIR      13   6  74 SE3       30.44F
RIFLE          FAIR      22  14  71 CALM      30.39F
DELTA          FAIR      22  13  66 NE5       30.40F WCI  16
NUCLA          FAIR      23  14  68 E8        30.39F WCI  14
$$

COZ017>023-064>068-180900-
...SOUTHWEST COLORADO...

CITY           SKY/WX    TMP DP  RH WIND       PRES   REMARKS
DURANGO        FAIR      16  13  88 N5        30.33S WCI   9
CORTEZ         FAIR      18  15  88 E6        30.35S WCI  10
PAGOSA SPRINGS FAIR      22  16  79 CALM      30.33F
TELLURIDE      FAIR      23   8  52 SE7       30.39S WCI  15
WOLF CREEK PAS FAIR      25  -4  28 W8        30.42S WCI  16
$$

COZ009-010-012-014-032>034-037-058>063-180900-
...CENTRAL COLORADO...

CITY           SKY/WX    TMP DP  RH WIND       PRES   REMARKS
ASPEN          FAIR      19   9  65 S7        30.37F WCI  10
BUENA VISTA    FAIR      27  11  49 NW12      30.30F WCI  17
COPPER MTN     NOT AVBL
BERTHOUD PASS  FAIR      12   1  62 NW26      30.33F WCI  -8
COTTONWOOD PAS   N/A     34   5  29 NW7       30.31S WCI  28
GUNNISON       FAIR       5   0  79 CALM      30.42S
KREMMLING      FAIR       9   1  72 CALM      30.44S
LEADVILLE      FAIR      13   7  77 NE8       30.34F WCI   2
MONARCH PASS   FAIR      19   5  53 W23       30.45S WCI   2
SALIDA         FAIR      26   6  43 NW7       30.37F WCI  18
SUNLIGHT       FAIR      23  14  68 NW5       30.42F WCI  17
WILKERSON PASS FAIR      27   3  36 NW9G23    30.32F WCI  17
$$

COZ069>075-180900-
...SAN LUIS VALLEY/SANGRE DE CRISTO MOUNTAINS...

CITY           SKY/WX    TMP DP  RH WIND       PRES   REMARKS
ALAMOSA        FAIR       5  -7  57 W3        30.32R
DEL NORTE      FAIR      23  -1  35 W14       30.32F WCI  11
LA VETA PASS   FAIR      27   1  33 SW26G36     N/A  WCI  11
SAGUACHE       FAIR      23   5  46 NW16      30.33S WCI  10
$$

COZ035-036-038>040-180900-
...NORTHERN COLORADO FRONT RANGE...

CITY           SKY/WX    TMP DP  RH WIND       PRES   REMARKS
DENVER INTL AP FAIR      30  11  45 S12       30.16F WCI  20
DMNS CITY PARK NOT AVBL
AURORA         CLEAR     30   9  41 S10       30.17F WCI  21
FRONT RANGE AP FAIR      28  17  62 S9        30.17F WCI  19
ERIE MUNI ARPT FAIR      19  14  78 CALM      30.23F
BOULDER MUN AP FAIR      30  14  51 CALM      30.17S
CENTENNIAL     FAIR      28   9  44 SE8       30.17F WCI  20
BROOMFIELD     FAIR      34  10  37 CALM      30.17F
FORT COLLINS   FAIR      26  15  63 N8        30.18F WCI  18
LONGMONT       FAIR      26  15  64 W3        30.19F
$$

COZ041-046-047-076>085-087-088-180900-
...PIKES PEAK/PALMER DIVIDE AND SOUTHERN FOOTHILLS...

CITY           SKY/WX    TMP DP  RH WIND       PRES   REMARKS
COLO. SPRINGS  FAIR      23   5  46 NE8       30.22F WCI  14
A. F. ACADEMY  FAIR      18   4  53 N10       30.21F WCI   6
SCHRIEVER AFB  FAIR      26   3  36 CALM      30.22F
CHEYENNE MTN   FAIR      33   2  26 NW5       30.15F WCI  29
ELLICOTT         N/A    N/A N/A N/A CALM      30.20F
FALCON         FAIR      20   4  50 NW7       30.23S WCI  11
FORT CARSON    FAIR      24   6  46 N10       30.20F WCI  14
LIMON          FAIR      13   8  81 N6        30.20F WCI   4
MONUMENT HILL  FAIR      28   5  37 SW9       30.22F WCI  20
CANON CITY     FAIR      34   1  25 W14       30.21F WCI  24
WALSENBURG     FAIR      28   5  37 SW8       30.22F WCI  20
TRINIDAD       FAIR      21   6  52 W13       30.23F WCI   9
$$

COZ042>045-048>051-090-091-180900-
...NORTHEAST COLORADO...

CITY           SKY/WX    TMP DP  RH WIND       PRES   REMARKS
GREELEY ARPT   FAIR      16  10  77 W7        30.19F WCI   6
AKRON          FAIR      31  15  52 SW16      30.16F WCI  20
BURLINGTON     FAIR      17   8  67 W9        30.18F WCI   6
WRAY           FAIR      21  14  73 W6        30.17F WCI  14
YUMA           FAIR      18  12  79 W9        30.17F WCI   6
STERLING       FAIR      16  12  86 S6        30.17F WCI   7
HOLYOKE        FAIR      25  19  80 W9        30.16F WCI  15
FORT MORGAN    FAIR      19  12  74 W8        30.17F WCI   9
$$

COZ086-089-092>099-180900-
...SOUTHEAST COLORADO...

CITY           SKY/WX    TMP DP  RH WIND       PRES   REMARKS
PUEBLO         FAIR      19   7  59 W6        30.22F WCI  11
LA JUNTA       FAIR      24  12  60 W8        30.22F WCI  15
LAMAR          FAIR      16   8  71 SW9       30.20F WCI   4
SPRINGFIELD      N/A     13   8  81 W6        30.19F WCI   4
$$



USA.gov is the U.S. government's official web portal to all federal, state and local government web resources and services.